Regional Weather Roundup
Issued by NWS

Home | Current Version | Previous Version | Graphics & Text | Print | Product List | Glossary On
Versions: 1 2 3 4 5 6 7 8 9 10 11 12 13 14 15 16 17 18 19 20 21 22 23 24 25 26 27 28 29 30 31 32 33 34 35 36 37 38 39 40 41 42 43 44 45 46 47 48 49 50
000
ASUS43 KLOT 242103
RWRIL

ILLINOIS REGIONAL WEATHER ROUNDUP
NATIONAL WEATHER SERVICE CHICAGO/ROMEOVILLE IL
400 PM CDT FRI MAR 24 2017

NOTE: "FAIR" INDICATES FEW OR NO CLOUDS BELOW 12,000 FEET WITH NO
SIGNIFICANT WEATHER AND/OR OBSTRUCTIONS TO VISIBILITY.

* THESE STATIONS ARE NOT UNDER NWS QUALITY CONTROL. THEY ALSO MAY NOT
  REPORT WEATHER SUCH AS PRECIPITATION OR FOG.

ILZ001-002-007-009-015-016-024-242200-
NORTHWEST ILLINOIS

CITY           SKY/WX    TMP DP  RH WIND       PRES   REMARKS
MOLINE         CLOUDY    74  42  31 W17       29.91R
STERLING*      CLOUDY    74  44  34 SW16G23   29.90R
SAVANNA*       CLOUDY    71  45  38 SW8       29.88S
$$

ILZ003-004-008-010-011-017-018-242200-
NORTH CENTRAL ILLINOIS

CITY           SKY/WX    TMP DP  RH WIND       PRES   REMARKS
ROCKFORD       CLOUDY    76  45  33 SW10      29.90R
FREEPORT*      CLOUDY    73  44  35 W14G22    29.90S
ROCHELLE*      CLOUDY    73  45  35 SW18G25   29.90R
DE KALB*       CLOUDY    74  42  31 W15G25    29.90R
$$

ILZ005-006-012>014-019>023-242200-
NORTHEAST ILLINOIS

CITY           SKY/WX    TMP DP  RH WIND       PRES   REMARKS
CHICAGO-OHARE  CLOUDY    80  41  24 W15G24    29.88S
CHICAGO-MIDWAY PTSUNNY   80  45  28 SW20G31   29.89S
AURORA         CLOUDY    79  43  27 SW16G26   29.89R
LANSING*       CLOUDY    78  54  42 SW26G33   29.91R
JOLIET*        PTSUNNY   80  50  35 SW17G26   29.90R HX  80
WAUKEGAN       MOSUNNY   49  42  77 NE12      29.91R
DUPAGE AIRPORT MOSUNNY   78  43  28 W15G25    29.89R
WHEELING       CLOUDY    78  41  26 SW14G23   29.89S
MORRIS*        MOSUNNY   79  49  34 SW20G28   29.89R
NORTHERLY ISL    N/A     78  38  23 W13         N/A
$$

LMZ740>746-242200-
SOUTHERN LAKE MICHIGAN

STATION/POSITION SKY/WX   TEMP    WIND        PRES    VSBY  WAVE
                          AIR SEA DIR/SP/G                  HT/PER
                          (F)     (DEG/KT/KT) (MB)    (MI)  (FT/S)
HARRISON CRIB              77     260/ 19/ 22   N/A
BURNHAM HARBOR             78     200/ 10/ 20   N/A
CALUMET HARBOR             78     210/ 16/ 24 1011.5F
BURNS HARBOR               75     220/ 27/ 32 1012.5F
MICHIGAN CITY              68     230/ 18/ 21   N/A
$$

ILZ025>027-034>036-040-047-049-050-058-095>099-242200-
WEST-CENTRAL ILLINOIS

CITY           SKY/WX    TMP DP  RH WIND       PRES   REMARKS
QUINCY         LGT RAIN  63  53  70 W23G31    29.96R
GALESBURG*     CLOUDY    74  46  36 SW15G21   29.91R
MACOMB*        CLOUDY    74  45  34 SW17      29.94R
JACKSONVILLE*  CLOUDY    74  49  40 SW20G29   29.93R
PITTSFIELD*    CLOUDY    75  51  43 SW14G22   29.94R
$$

ILZ028>032-037-038-041>044-048-051>054-059>061-242200-
CENTRAL ILLINOIS

CITY           SKY/WX    TMP DP  RH WIND       PRES   REMARKS
PONTIAC        PTSUNNY   77  54  44 SW22G28   29.93S
BLOOMINGTON    PTSUNNY   75  56  51 SW21G30   29.94S
DECATUR        MOSUNNY   73  55  53 S28       29.97S
PEORIA         CLOUDY    76  47  35 SW10      29.91R
SPRINGFIELD    CLOUDY    77  54  44 S16G29    29.94R
TAYLORVILLE    NOT AVBL
$$

ILZ033-039-045-046-055>057-062-063-242200-
EAST-CENTRAL ILLINOIS

CITY           SKY/WX    TMP DP  RH WIND       PRES   REMARKS
CHAMPAIGN      PTSUNNY   75  54  47 S30G40    29.97F
RANTOUL*       CLOUDY    77  57  50 S25G31    29.97R
MATTOON        PTSUNNY   72  56  57 S21G35    30.01S
PARIS*         PTSUNNY   74  57  55 S30G38    30.02S
$$

ILZ079-100>102-242200-
SOUTHWEST ILLINOIS

CITY           SKY/WX    TMP DP  RH WIND       PRES   REMARKS
ALTON          CLOUDY    73  52  46 S21G29    29.95F
BELLEVILLE     PTSUNNY   75  55  50 S14G23    29.96S
CAHOKIA*       CLOUDY    76  52  43 S13G22    29.95F
SPARTA*        CLOUDY    73  57  57 S14G23    30.00F
$$

ILZ064>066-069>071-074>076-080>082-084>086-088>090-092>094-242200-
SOUTH-CENTRAL ILLINOIS

CITY           SKY/WX    TMP DP  RH WIND       PRES   REMARKS
CARBONDALE     CLOUDY    72  58  61 S22G37    30.02F
CAIRO*         MOSUNNY   73  58  58 S14G25    30.07F
EFFINGHAM*     PTSUNNY   73  58  58 S14G22    30.03F
MARION         PTSUNNY   73  57  56 S22G36    30.04F
MT. VERNON     PTSUNNY   73  58  59 S20       30.02F
CENTRALIA*     CLOUDY    73  59  61 S18G28    30.00F
SALEM*         CLOUDY    74  56  54 S22G29    30.02S
$$

ILZ067-068-072-073-078-083-087-091-242200-
SOUTHEAST ILLINOIS

CITY           SKY/WX    TMP DP  RH WIND       PRES   REMARKS
LAWRENCEVILLE  CLOUDY    73  56  54 SW24G35   30.06F
FLORA*         CLOUDY    74  58  57 S18G32    30.04S
FAIRFIELD*     CLOUDY    73  56  57 S13G23    30.04F
HARRISBURG*    CLOUDY    73  57  57 SW20G33   30.06F
ROBINSON*      CLOUDY    72  56  56 SW21G31   30.06S
CARMI*         CLOUDY    74  57  56 S25G33    30.06F
$$

ABBREVIATIONS USED IN REMARKS
   TC - TEMPERATURE IN CELSIUS
  WCI - WIND CHILL INDEX
   HX - HEAT INDEX
  VSB - VISIBILITY
$$





USA.gov is the U.S. government's official web portal to all federal, state and local government web resources and services.